DW4127 Weather Reports


Display with metric or nautical units.
time (UTC)temp
F
wind
direction
speed
MPH
gust
MPH
rain 1hr
in
rain 24hr
in
rain mn
in
humidity
%
barometer
mb
20260505035607 74 180 5.0 12.0 0.00 0.00 0.00 72 1005.7
20260505034627 75 158 7.0 15.0 0.00 0.00 0.00 71 1005.6
20260505033547 75 158 7.0 13.0 0.00 0.00 0.00 71 1005.4
20260505032547 75 180 8.0 18.0 0.00 0.00 0.00 70 1005.6
20260505031547 75 180 6.0 13.0 0.00 0.00 0.00 70 1005.6
20260505030547 75 180 7.0 19.0 0.00 0.00 0.00 70 1005.6
20260505025549 75 158 5.0 16.0 0.00 0.00 0.00 70 1005.7
20260505024549 75 180 7.0 16.0 0.00 0.00 0.00 70 1005.6
20260505023547 75 158 6.0 13.0 0.00 0.00 0.00 69 1005.5
20260505022549 76 158 6.0 16.0 0.00 0.00 0.00 69 1005.2
20260505021549 76 180 5.0 12.0 0.00 0.00 0.00 69 1005.4
20260505020609 76 158 7.0 13.0 0.00 0.00 0.00 68 1005.2
20260505015549 76 180 7.0 16.0 0.00 0.00 0.00 68 1005.2
20260505014549 76 180 5.0 13.0 0.00 0.00 0.00 68 1005.2
20260505013549 76 180 6.0 12.0 0.00 0.00 0.00 67 1005.3
20260505012549 77 158 6.0 12.0 0.00 0.00 0.00 67 1005.3
20260505011549 77 180 7.0 14.0 0.00 0.00 0.00 66 1005.2
20260505010549 77 158 6.0 15.0 0.00 0.00 0.00 65 1005.2
20260505005549 77 158 9.0 19.0 0.00 0.00 0.00 65 1005.1
20260505004609 77 180 4.0 9.0 0.00 0.00 0.00 65 1005.3
20260505003549 78 180 8.0 16.0 0.00 0.00 0.00 64 1005.4
20260505002549 78 180 8.0 17.0 0.00 0.00 0.00 64 1005.3
20260505001609 79 203 7.0 15.0 0.00 0.00 0.00 63 1005.4
20260505000549 79 180 6.0 13.0 0.00 0.00 0.00 63 1005.5
20260504235549 79 203 7.0 14.0 0.00 0.00 0.00 62 1005.5
20260504234609 79 180 7.0 14.0 0.00 0.00 0.00 62 1005.7
20260504233549 79 180 10.0 21.0 0.00 0.00 0.00 61 1005.7
20260504232549 79 180 10.0 19.0 0.00 0.00 0.00 61 1005.6
20260504231549 79 180 10.0 21.0 0.00 0.00 0.00 60 1005.7
20260504230609 80 180 9.0 19.0 0.00 0.00 0.00 60 1005.9
20260504225549 80 203 7.0 18.0 0.00 0.00 0.00 59 1005.9
20260504224547 81 180 9.0 19.0 0.00 0.00 0.00 59 1006.2
20260504223549 81 180 10.0 19.0 0.00 0.00 0.00 59 1006.2
20260504222549 81 180 6.0 12.0 0.00 0.00 0.00 60 1006.1
20260504221609 81 203 7.0 16.0 0.00 0.00 0.00 58 1006.2
20260504220549 81 180 6.0 13.0 0.00 0.00 0.00 59 1006.5
20260504215549 81 180 9.0 16.0 0.00 0.00 0.00 58 1006.6
20260504214549 82 203 6.0 16.0 0.00 0.00 0.00 57 1006.7
20260504213609 81 180 8.0 18.0 0.00 0.00 0.00 58 1006.8
20260504212549 81 180 9.0 20.0 0.00 0.00 0.00 57 1006.9
20260504211609 82 158 9.0 20.0 0.00 0.00 0.00 57 1007.2
20260504210549 81 180 9.0 18.0 0.00 0.00 0.00 57 1007.3
20260504205549 81 158 10.0 23.0 0.00 0.00 0.00 57 1007.5
20260504204549 81 180 6.0 14.0 0.00 0.00 0.00 57 1007.7
20260504203549 81 203 11.0 20.0 0.00 0.00 0.00 57 1008.0
20260504202549 80 158 10.0 21.0 0.00 0.00 0.00 56 1008.1
20260504201549 81 180 9.0 22.0 0.00 0.00 0.00 56 1008.3
20260504200549 82 203 7.0 15.0 0.00 0.00 0.00 56 1008.7
20260504195549 81 203 9.0 18.0 0.00 0.00 0.00 55 1008.7
20260504194549 81 203 7.0 17.0 0.00 0.00 0.00 55 1008.9
20260504193609 81 180 6.0 16.0 0.00 0.00 0.00 55 1009.0
20260504192549 80 203 8.0 18.0 0.00 0.00 0.00 55 1009.2
20260504191548 80 203 9.0 19.0 0.00 0.00 0.00 55 1009.5
20260504190548 80 180 8.0 16.0 0.00 0.00 0.00 54 1009.6
20260504185609 80 225 7.0 12.0 0.00 0.00 0.00 56 1009.6
20260504184548 79 180 8.0 16.0 0.00 0.00 0.00 54 1009.5
20260504183548 79 180 9.0 17.0 0.00 0.00 0.00 54 1010.0
20260504182549 79 180 8.0 15.0 0.00 0.00 0.00 53 1010.1
20260504181549 79 203 7.0 13.0 0.00 0.00 0.00 53 1010.4
20260504180548 78 203 9.0 18.0 0.00 0.00 0.00 52 1010.2
20260504175548 78 158 10.0 24.0 0.00 0.00 0.00 51 1010.3
20260504174608 78 180 7.0 17.0 0.00 0.00 0.00 51 1010.7
20260504173548 78 180 9.0 16.0 0.00 0.00 0.00 51 1010.8
20260504172549 77 180 7.0 16.0 0.00 0.00 0.00 52 1010.8
20260504171548 77 180 8.0 17.0 0.00 0.00 0.00 51 1011.1
20260504170549 76 180 10.0 20.0 0.00 0.00 0.00 52 1011.3
20260504150629 70 180 6.0 15.0 0.00 0.00 0.00 66 1012.4
20260504140608 67 225 8.0 22.0 0.00 0.00 0.00 68 1012.8
20260504130548 64 180 7.0 14.0 0.00 0.00 0.00 72 1012.7
20260504110548 63 203 6.0 18.0 0.00 0.00 0.00 69 1012.1
20260504100548 63 180 4.0 10.0 0.00 0.00 0.00 71 1012.6
20260504081548 65 180 4.0 8.0 0.00 0.00 0.00 64 1013.1
20260504080548 65 203 4.0 11.0 0.00 0.00 0.00 63 1013.2
20260504050548 69 180 4.0 10.0 0.00 0.00 0.00 56 1015.0
20260504045547 69 180 4.0 9.0 0.00 0.00 0.00 56 1015.2
20260504044547 69 180 3.0 6.0 0.00 0.00 0.00 55 1015.3
20260504043547 69 203 3.0 9.0 0.00 0.00 0.00 54 1015.2
20260504042547 70 203 3.0 8.0 0.00 0.00 0.00 54 1015.3
20260504041547 70 180 4.0 9.0 0.00 0.00 0.00 53 1015.3
20260504040547 70 180 4.0 12.0 0.00 0.00 0.00 53 1015.3